Location: Stanford
(52.2833°N, 2.4333°W)
Time: 20:02:39
(UTC+00:00)

Cosmos 1892 Rocket - Pass Details

Date: 22 January 2021
Orbit: 607 x 632 km, 82.5° (Epoch: 27 February)

Event Time Altitude Azimuth Distance (km) Brightness Sun altitude
Rises 17:29:07 0° 167° (SSE) 2,862 7.1 -7.7°
Reaches altitude 10° 17:31:26 10° 159° (SSE) 1,960 6.2 -8.0°
Maximum altitude 17:35:26 38° 92° (E) 938 4.1 -8.6°
Drops below altitude 10° 17:39:28 10° 24° (NNE) 1,971 5.7 -9.2°
Sets 17:41:48 0° 17° (NNE) 2,880 6.6 -9.5°
